Pagina principale
METAR-TAF:

METAR-TAF

Aeroporti :

Alpnach, Svizzera

latitudine: 46-56-19N, longitudine: 8-17-03E, altezza: 440 m

Osservazione

Il bollettino è stato emesso 16 minuti fa, alle 15:20 UTC
Vento 8 kt da ovest/sud-ovest, variando fra sud-ovest e ovest
Temperature 13°C
Umidità 58%
Pressione 1005 hPa
Visibilità 10 km o più
Poco nuvoloso ad un'altezza di 2100 ft
Nubi sparse ad un'altezza di 4300 ft
pioggia debole

METAR: LSMA 271520Z AUTO 24008KT 220V280 9999NDV -RA FEW021 SCT043 13/05 Q1005 RMK

Ora: 17:36 (15:36 UTC)


TAF: mancante

Osservazioni e previsioni meteorologiche di più di 4000 aeroporti (messaggi METAR e TAF).

Le stazioni disponibili sono rappresentate dai dischi gialli e rossi sulla carta.

Puntare il mouse per vedere il nome della stazione.

Clicca sopra per visualizzare le osservazioni e previsioni meteorologiche.

Per cambiare la mappa : fare clic sui pulsanti verdi con una croce nera per ingrandire, il pulsante verde con un trattino per diminuire, o sulla freccia verde per le mappe adiacenti.


METAR-TAF: